When you browse on this site, cookies collect data to enhance your experience and personalize the content and advertising you see.
Visit our Privacy Policy to learn more. By continuing to use the site, you agree to this use of cookies and data.

Meteo pe oră la Gati

Astăzi, 5 Iulie, Duminică

Timp Temperatura Precipitaţii Vânt Presiune Umiditate
00:00 +22°C° 0.1 mm 1 m/s 743 mmHg 91%
01:00 +21°C° 0.1 mm 1 m/s 743 mmHg 91%
02:00 +21°C° 0.1 mm 1 m/s 743 mmHg 92%
03:00 +21°C° 0.1 mm 1 m/s 743 mmHg 93%
04:00 +21°C° 0.1 mm 1 m/s 743 mmHg 93%
05:00 +21°C° 0.1 mm 1 m/s 743 mmHg 92%
06:00 +21°C° 0.1 mm 1 m/s 743 mmHg 92%
07:00 +23°C° 0.1 mm 1 m/s 743 mmHg 88%
08:00 +22°C° 0.1 mm 0 m/s 743 mmHg 85%
09:00 +23°C° 0.1 mm 0 m/s 743 mmHg 81%
10:00 +24°C° 0.6 mm 0 m/s 743 mmHg 77%
11:00 +27°C° 0.6 mm 1 m/s 743 mmHg 74%
12:00 +27°C° 0.6 mm 1 m/s 743 mmHg 70%
13:00 +27°C° 0.7 mm 1 m/s 743 mmHg 71%
14:00 +27°C° 0.7 mm 1 m/s 742 mmHg 72%
15:00 +28°C° 0.7 mm 2 m/s 742 mmHg 73%
16:00 +26°C° 1.2 mm 2 m/s 742 mmHg 77%
17:00 +25°C° 1.2 mm 1 m/s 742 mmHg 82%
18:00 +24°C° 1.2 mm 1 m/s 742 mmHg 86%
19:00 +23°C° 0.2 mm 2 m/s 742 mmHg 87%
20:00 +23°C° 0.2 mm 2 m/s 742 mmHg 87%
21:00 +21°C° 0.2 mm 3 m/s 742 mmHg 87%
22:00 +21°C° 0 mm 2 m/s 742 mmHg 88%
23:00 +20°C° 0 mm 2 m/s 742 mmHg 89%

Mâine, 6 Iulie, Luni

Timp Temperatura Precipitaţii Vânt Presiune Umiditate
00:00 +20°C° 0 mm 2 m/s 742 mmHg 90%
01:00 +19°C° 0 mm 2 m/s 742 mmHg 91%
02:00 +20°C° 0 mm 1 m/s 742 mmHg 91%
03:00 +20°C° 0 mm 1 m/s 742 mmHg 91%
04:00 +20°C° 0 mm 1 m/s 742 mmHg 91%
05:00 +20°C° 0 mm 1 m/s 742 mmHg 91%
06:00 +20°C° 0 mm 1 m/s 742 mmHg 91%
07:00 +22°C° 0 mm 1 m/s 742 mmHg 86%
08:00 +23°C° 0 mm 1 m/s 743 mmHg 81%
09:00 +24°C° 0 mm 1 m/s 743 mmHg 77%
10:00 +25°C° 0 mm 1 m/s 743 mmHg 73%
11:00 +26°C° 0 mm 1 m/s 743 mmHg 69%
12:00 +27°C° 0 mm 2 m/s 743 mmHg 65%
13:00 +27°C° 0 mm 2 m/s 743 mmHg 64%
14:00 +28°C° 0 mm 2 m/s 742 mmHg 63%
15:00 +28°C° 0 mm 2 m/s 742 mmHg 62%
16:00 +28°C° 0 mm 2 m/s 742 mmHg 65%
17:00 +28°C° 0 mm 2 m/s 742 mmHg 68%
18:00 +28°C° 0 mm 1 m/s 742 mmHg 70%
19:00 +26°C° 0 mm 1 m/s 742 mmHg 74%
20:00 +24°C° 0 mm 1 m/s 742 mmHg 77%
21:00 +23°C° 0 mm 1 m/s 742 mmHg 81%
22:00 +22°C° 0 mm 1 m/s 742 mmHg 82%
23:00 +22°C° 0 mm 1 m/s 742 mmHg 84%

Poimâine, 7 Iulie, Marţi

Timp Temperatura Precipitaţii Vânt Presiune Umiditate
00:00 +21°C° 0 mm 1 m/s 742 mmHg 85%
01:00 +21°C° 0 mm 1 m/s 742 mmHg 86%
02:00 +21°C° 0 mm 1 m/s 742 mmHg 87%
03:00 +21°C° 0 mm 1 m/s 742 mmHg 88%
04:00 +20°C° 0 mm 2 m/s 742 mmHg 88%
05:00 +20°C° 0 mm 2 m/s 742 mmHg 88%
06:00 +21°C° 0 mm 2 m/s 742 mmHg 89%
07:00 +22°C° 0.2 mm 3 m/s 742 mmHg 86%
08:00 +25°C° 0.2 mm 3 m/s 742 mmHg 84%
09:00 +26°C° 0.2 mm 3 m/s 742 mmHg 82%
10:00 +27°C° 0.2 mm 3 m/s 742 mmHg 77%
11:00 +29°C° 0.2 mm 3 m/s 741 mmHg 73%
12:00 +30°C° 0.2 mm 4 m/s 741 mmHg 69%
13:00 +30°C° 0 mm 3 m/s 741 mmHg 70%
14:00 +30°C° 0 mm 3 m/s 740 mmHg 70%
15:00 +30°C° 0 mm 3 m/s 740 mmHg 71%
16:00 +30°C° 0.4 mm 3 m/s 740 mmHg 73%
17:00 +30°C° 0.4 mm 2 m/s 740 mmHg 76%
18:00 +30°C° 0.4 mm 2 m/s 740 mmHg 78%
19:00 +28°C° 0.1 mm 2 m/s 740 mmHg 80%
20:00 +27°C° 0.1 mm 2 m/s 740 mmHg 82%
21:00 +26°C° 0.1 mm 2 m/s 740 mmHg 83%
22:00 +25°C° 0 mm 2 m/s 740 mmHg 84%
23:00 +24°C° 0 mm 2 m/s 740 mmHg 85%

8 Iulie, Miercuri

Timp Temperatura Precipitaţii Vânt Presiune Umiditate
00:00 +24°C° 0 mm 2 m/s 740 mmHg 86%
01:00 +23°C° 0 mm 2 m/s 740 mmHg 84%
02:00 +23°C° 0 mm 2 m/s 740 mmHg 82%
03:00 +23°C° 0 mm 1 m/s 740 mmHg 80%
04:00 +23°C° 0 mm 1 m/s 740 mmHg 81%
05:00 +23°C° 0 mm 1 m/s 740 mmHg 82%
06:00 +23°C° 0 mm 2 m/s 740 mmHg 83%
07:00 +25°C° 0 mm 2 m/s 740 mmHg 79%
08:00 +26°C° 0 mm 2 m/s 740 mmHg 76%
09:00 +27°C° 0 mm 3 m/s 740 mmHg 73%
10:00 +28°C° 0 mm 3 m/s 740 mmHg 71%
11:00 +29°C° 0 mm 3 m/s 740 mmHg 69%
12:00 +30°C° 0 mm 3 m/s 741 mmHg 67%
13:00 +30°C° 0 mm 3 m/s 740 mmHg 67%
14:00 +31°C° 0 mm 3 m/s 740 mmHg 67%
15:00 +31°C° 0 mm 3 m/s 740 mmHg 68%
16:00 +31°C° 0 mm 3 m/s 740 mmHg 71%
17:00 +31°C° 0 mm 2 m/s 740 mmHg 73%
18:00 +31°C° 0 mm 2 m/s 740 mmHg 76%
19:00 +29°C° 0.2 mm 2 m/s 740 mmHg 79%
20:00 +28°C° 0.2 mm 2 m/s 740 mmHg 81%
21:00 +26°C° 0.2 mm 2 m/s 740 mmHg 84%
22:00 +26°C° 0.5 mm 2 m/s 740 mmHg 84%
23:00 +25°C° 0.5 mm 2 m/s 740 mmHg 85%

9 Iulie, Joi

Timp Temperatura Precipitaţii Vânt Presiune Umiditate
00:00 +24°C° 0.5 mm 2 m/s 740 mmHg 86%
01:00 +24°C° 0.1 mm 2 m/s 740 mmHg 85%
02:00 +24°C° 0.1 mm 2 m/s 740 mmHg 84%
03:00 +24°C° 0.1 mm 3 m/s 739 mmHg 83%
04:00 +23°C° 0.3 mm 2 m/s 739 mmHg 86%
05:00 +23°C° 0.3 mm 2 m/s 739 mmHg 88%
06:00 +22°C° 0.3 mm 1 m/s 739 mmHg 90%
07:00 +23°C° 0.1 mm 2 m/s 739 mmHg 89%
08:00 +22°C° 0.1 mm 3 m/s 739 mmHg 87%
09:00 +24°C° 0.1 mm 3 m/s 739 mmHg 86%
10:00 +24°C° 0.1 mm 2 m/s 739 mmHg 83%
11:00 +25°C° 0.1 mm 2 m/s 739 mmHg 80%
12:00 +26°C° 0.1 mm 1 m/s 739 mmHg 78%
13:00 +25°C° 1.4 mm 2 m/s 739 mmHg 80%
14:00 +25°C° 1.4 mm 2 m/s 739 mmHg 82%
15:00 +25°C° 1.4 mm 3 m/s 739 mmHg 85%
16:00 +22°C° 0.7 mm 4 m/s 739 mmHg 88%
17:00 +21°C° 0.7 mm 4 m/s 739 mmHg 91%
18:00 +20°C° 0.7 mm 4 m/s 739 mmHg 94%
19:00 +19°C° 0.2 mm 4 m/s 739 mmHg 94%
20:00 +19°C° 0.2 mm 4 m/s 739 mmHg 95%
21:00 +18°C° 0.2 mm 3 m/s 739 mmHg 95%
22:00 +17°C° 0 mm 3 m/s 739 mmHg 95%
23:00 +16°C° 0 mm 3 m/s 739 mmHg 95%

10 Iulie, Vineri

Timp Temperatura Precipitaţii Vânt Presiune Umiditate
00:00 +16°C° 0 mm 3 m/s 739 mmHg 96%
01:00 +14°C° 0 mm 3 m/s 739 mmHg 96%
02:00 +14°C° 0 mm 3 m/s 739 mmHg 96%
03:00 +13°C° 0 mm 3 m/s 740 mmHg 96%
04:00 +13°C° 0 mm 4 m/s 740 mmHg 95%
05:00 +14°C° 0 mm 4 m/s 740 mmHg 93%
06:00 +14°C° 0 mm 4 m/s 740 mmHg 92%
07:00 +15°C° 0 mm 5 m/s 740 mmHg 88%
08:00 +16°C° 0 mm 5 m/s 740 mmHg 84%
09:00 +17°C° 0 mm 5 m/s 741 mmHg 80%
10:00 +19°C° 0 mm 5 m/s 741 mmHg 76%
11:00 +20°C° 0 mm 5 m/s 741 mmHg 73%
12:00 +20°C° 0 mm 5 m/s 741 mmHg 69%
13:00 +20°C° 0 mm 6 m/s 742 mmHg 70%
14:00 +20°C° 0 mm 6 m/s 742 mmHg 70%
15:00 +20°C° 0 mm 6 m/s 742 mmHg 70%
16:00 +20°C° 0 mm 6 m/s 742 mmHg 72%
17:00 +20°C° 0 mm 6 m/s 743 mmHg 74%
18:00 +19°C° 0 mm 5 m/s 743 mmHg 76%
19:00 +17°C° 0 mm 5 m/s 743 mmHg 79%
20:00 +17°C° 0 mm 4 m/s 744 mmHg 83%
21:00 +14°C° 0 mm 3 m/s 744 mmHg 87%
22:00 +13°C° 0 mm 3 m/s 745 mmHg 88%
23:00 +13°C° 0 mm 3 m/s 745 mmHg 90%
Arată mai mult